[[[{"header":{"parameterUnit":"kt","parameterCategory":2,"dx":1,"dy":1,"la1":30.253999710083008,"la2":30.299108505249023,"lo1":-89.0895004272461,"lo2":-89.04439544677734,"nx":28,"ny":28,"refTime":"2022-09-20T15:00:00:Z","depth":"0","parameterNumber":2,"parameterNumberName":"U-component_of_CURRENTS"},"data":[-0.7385,-0.7147,-0.7089,-0.6241,-0.6049,-0.5211,-0.4812,-0.419,-0.3646,-0.236,-0.146,-0.1118,-0.1219,-0.1328,-0.1271,-0.1302,-0.1533,-0.1421,-0.1977,-0.2149,-0.2298,-0.2441,-0.2227,-0.1043,-0.1043,-0.1129,-0.113,-0.113,-0.7665,-0.7625,-0.7714,-0.7455,-0.7099,-0.7286,-0.6925,-0.636,-0.5545,-0.5058,-0.4382,-0.3271,-0.2637,-0.2547,-0.2262,-0.2217,-0.2339,-0.2405,-0.2457,-0.2519,-0.2956,-0.2712,-0.1611,-0.1612,-0.1612,-0.1612,-0.1612,-0.1613,-0.8044,-0.8112,-0.8181,-0.8168,-0.8191,-0.7841,-0.754,-0.7391,-0.702,-0.6284,-0.6535,-0.5522,-0.5092,-0.4415,-0.4373,-0.395,-0.4546,-0.38,-0.405,-0.43,-0.4043,-0.4557,-0.3963,-0.3972,-0.398,-0.3988,-0.3994,0,-0.8062,-0.8205,-0.8401,-0.8472,-0.8524,-0.8528,-0.8504,-0.8452,-0.8348,-0.8177,-0.7651,-0.727,-0.6821,-0.5965,-0.5739,-0.5575,-0.5788,-0.5743,-0.5679,-0.4611,-0.4636,-0.4477,-0.5319,-0.4954,-0.497,-0.4981,-0.499,-0.4996,-0.7899,-0.8121,-0.8484,-0.8528,-0.866,-0.8843,-0.8818,-0.8902,-0.8782,-0.8635,-0.8467,-0.8251,-0.7755,-0.7397,-0.7031,-0.67,-0.6867,-0.6114,-0.597,-0.5748,-0.583,-0.6014,-0.5946,-0.5162,-0.5141,-0.5124,-0.511,0,-0.7779,-0.7965,-0.8296,-0.8579,-0.8642,-0.8807,-0.8871,-0.8842,-0.8867,-0.872,-0.8687,-0.8517,-0.8218,-0.8116,-0.7908,-0.7749,-0.7286,-0.7388,-0.6669,-0.6464,-0.585,-0.6,-0.5897,-0.5782,-0.6916,-0.6907,-0.69,0,-0.7636,-0.7852,-0.8125,-0.8298,-0.8539,-0.8608,-0.8752,-0.8774,-0.8737,-0.8639,-0.8606,-0.847,-0.8378,-0.824,-0.809,-0.775,-0.7949,-0.7479,-0.7358,-0.6762,-0.6676,-0.6409,-0.6517,-0.7839,-0.7839,-0.784,-0.784,0,-0.7416,-0.7733,-0.8029,-0.8119,-0.8334,-0.8447,-0.8497,-0.8516,-0.8518,-0.8493,-0.8435,-0.8436,-0.833,-0.8271,-0.801,-0.7992,-0.7881,-0.7801,-0.7412,-0.7382,-0.6695,-0.6596,-0.6452,-0.7841,-0.7841,-0.7842,-0.7842,0,-0.728,-0.7491,-0.783,-0.8045,-0.81,-0.8209,-0.8323,-0.8373,-0.8349,-0.8299,-0.8304,-0.8169,-0.8177,-0.8039,-0.7972,-0.7951,-0.7833,-0.772,-0.7711,-0.7296,-0.7069,-0.6332,-0.6321,-0.6133,-0.7503,-0.7501,-0.75,0,-0.7068,-0.7406,-0.7459,-0.7718,-0.7886,-0.7861,-0.794,-0.7985,-0.7943,-0.7946,-0.7893,-0.7876,-0.779,-0.7752,-0.778,-0.7603,-0.7649,-0.7625,-0.7412,-0.7406,-0.7046,-0.7207,-0.6495,-0.6343,-0.7482,-0.7484,-0.7485,0,-0.6887,-0.7143,-0.7173,-0.7299,-0.7399,-0.7478,-0.7566,-0.7657,-0.7694,-0.7666,-0.7725,-0.7725,-0.7632,-0.7607,-0.7505,-0.7519,-0.7599,-0.7371,-0.7364,-0.731,-0.7582,-0.7221,-0.7198,-0.7537,-0.7542,-0.7545,-0.747,0,-0.6826,-0.6962,-0.7036,-0.7174,-0.7229,-0.7344,-0.734,-0.7362,-0.7304,-0.7284,-0.7337,-0.7223,-0.7208,-0.7205,-0.7109,-0.7247,-0.7151,-0.7067,-0.6928,-0.7129,-0.7062,-0.7075,-0.6846,-0.6841,-0.6837,-0.6833,0,0,-0.661,-0.6788,-0.6772,-0.6906,-0.6973,-0.6891,-0.7031,-0.7012,-0.6993,-0.7011,-0.6906,-0.6885,-0.6784,-0.6875,-0.6937,-0.6875,-0.6831,-0.6842,-0.7033,-0.7056,-0.7077,-0.7025,-0.7042,-0.6826,-0.6824,-0.6823,-0.6821,0,-0.6597,-0.662,-0.6733,-0.6786,-0.6849,-0.6842,-0.6868,-0.6874,-0.6851,-0.6871,-0.6755,-0.6742,-0.6663,-0.6647,-0.6624,-0.6806,-0.6658,-0.6798,-0.699,-0.6996,-0.7025,-0.7049,-0.7005,-0.7023,-0.6811,-0.6812,-0.6812,0,-0.6477,-0.6536,-0.657,-0.6671,-0.6675,-0.6762,-0.6653,-0.6709,-0.6762,-0.6556,-0.656,-0.6484,-0.6399,-0.6436,-0.6434,-0.6363,-0.6493,-0.6439,-0.6461,-0.6489,-0.6486,-0.652,-0.6551,-0.6147,-0.6145,-0.6144,0,0,-0.6459,-0.6539,-0.6581,-0.6664,-0.6687,-0.6658,-0.667,-0.6648,-0.6609,-0.6579,-0.6475,-0.6393,-0.6367,-0.6329,-0.6283,-0.6305,-0.6241,-0.6364,-0.6395,-0.6421,-0.6463,-0.6468,-0.6502,-0.6138,-0.6138,-0.6137,0,0,-0.643,-0.6499,-0.6478,-0.6587,-0.6618,-0.661,-0.6635,-0.6592,-0.6536,-0.6502,-0.6347,-0.6312,-0.6318,-0.6233,-0.6168,-0.6255,-0.6122,-0.6131,-0.631,-0.6346,-0.6377,-0.6439,-0.601,0,0,0,0,0,-0.6411,-0.6505,-0.6486,-0.6505,-0.6562,-0.6632,-0.6631,-0.6572,-0.6494,-0.6528,-0.6417,-0.6302,-0.6193,-0.6131,-0.6105,-0.6194,-0.6058,-0.6072,-0.6085,-0.6319,-0.636,-0.6395,0,0,0,0,0,0,-0.6419,-0.6445,-0.6483,-0.649,-0.6502,-0.6627,-0.6507,-0.6492,-0.649,-0.6475,-0.633,-0.6299,-0.6194,-0.6134,-0.6112,-0.6202,-0.6017,-0.6063,-0.6075,-0.6086,-0.6333,-0.6367,-0.6395,0,0,0,0,0,-0.6425,-0.6445,-0.6564,-0.6485,-0.6495,-0.6447,-0.6503,-0.6489,-0.647,-0.6344,-0.6313,-0.6427,-0.62,-0.6171,-0.612,-0.6216,-0.603,-0.6023,-0.6071,-0.608,-0.6089,-0.635,0,0,0,0,0,0,-0.6429,-0.6402,-0.6563,-0.6562,-0.6451,-0.6437,-0.6437,-0.6487,-0.6333,-0.6311,-0.6432,-0.6422,-0.6204,-0.618,-0.6159,-0.6232,-0.6041,-0.6034,-0.6029,-0.6078,-0.6086,-0.6092,0,0,0,0,0,0,-0.6392,-0.6403,-0.6562,-0.6522,-0.6515,-0.6428,-0.6429,-0.6367,-0.6327,-0.6424,-0.6415,-0.6428,-0.6196,-0.6188,-0.6171,-0.6078,-0.605,-0.6043,-0.6038,-0.6035,-0.6084,-0.609,0,0,0,0,0,0,-0.6394,-0.6403,-0.6521,-0.6516,-0.6509,-0.6481,-0.6362,-0.6392,-0.6397,-0.6427,-0.6387,-0.6382,-0.6203,-0.6186,-0.618,-0.6095,-0.6082,-0.605,-0.6045,-0.6041,-0.6039,0,0,0,0,0,0,0,-0.6396,-0.6365,-0.6584,-0.6511,-0.6505,-0.6553,-0.6551,-0.6549,-0.6396,-0.6392,-0.6388,-0.6384,-0.6091,-0.6083,-0.6075,-0.6109,0,0,-0.605,-0.6047,0,0,0,0,0,0,0,0,-0.6358,-0.6363,-0.6584,-0.6584,-0.6585,-0.6552,-0.6551,-0.655,-0.6395,-0.6392,-0.6389,-0.6385,-0.6089,-0.6082,-0.6076,0,0,0,0,0,0,0,0,0,0,0,0,0,0,0,-0.6584,-0.6584,0,-0.6552,-0.6551,-0.655,-0.6395,-0.6392,-0.6389,-0.6387,-0.6087,-0.6082,-0.6076,0,0,0,0,0,0,0,0,0,0,0,0,0,0,0,0,0,0,0,0,0,0,0,0,0,0,0,0,0,0,0,0,0,0,0,0,0,0,0,0,0,0,0,0,0,0,0,0,0,0,0,0,0,0,0,0,0,0,0,0,0,0,0,0,0,0,0,0,0]}],[{"header":{"parameterUnit":"kt","parameterCategory":2,"dx":1,"dy":1,"la1":30.253999710083008,"la2":30.299108505249023,"lo1":-89.0895004272461,"lo2":-89.04439544677734,"nx":28,"ny":28,"refTime":"2022-09-20T15:00:00:Z","depth":"0","parameterNumber":3,"parameterNumberName":"V-component_of_CURRENTS"},"data":[-0.377,-0.3301,-0.3083,-0.2406,-0.2178,-0.1683,-0.1474,-0.1003,-0.0534,0.0545,0.1343,0.1807,0.2038,0.2364,0.2738,0.2778,0.2955,0.289,0.2907,0.2436,0.2336,0.2242,0.2453,0.3184,0.3185,0.3696,0.3701,0.3705,-0.3997,-0.3719,-0.3493,-0.2991,-0.2699,-0.2703,-0.2425,-0.206,-0.151,-0.1031,-0.0506,0.0443,0.0944,0.12,0.1692,0.1914,0.1885,0.1977,0.1976,0.2053,0.1355,0.1555,0.2108,0.2108,0.2108,0.2107,0.2107,0.2107,-0.4259,-0.408,-0.3772,-0.346,-0.3265,-0.2999,-0.2746,-0.251,-0.2177,-0.1643,-0.1723,-0.1045,-0.0673,0.0075,0.0204,0.0756,0.051,0.0942,0.0929,0.0851,0.1194,0.0367,0.0715,0.0711,0.0708,0.0706,0.0703,0,-0.4205,-0.4126,-0.3971,-0.3671,-0.348,-0.3271,-0.3041,-0.2974,-0.27,-0.2522,-0.2213,-0.1996,-0.1604,-0.0987,-0.0556,-0.0357,-0.0116,-0.0232,0.0007,0.0585,0.0563,0.0752,-0.0214,0.0025,0.0017,0.0012,0.0008,0.0005,-0.4002,-0.4037,-0.3786,-0.3633,-0.3542,-0.3357,-0.3182,-0.2953,-0.2797,-0.2585,-0.2505,-0.2277,-0.1969,-0.156,-0.1133,-0.0796,-0.0646,-0.0424,-0.0279,-0.0051,0.0006,-0.003,0.0112,-0.0076,-0.0066,-0.0057,-0.0051,0,-0.3843,-0.3748,-0.3685,-0.3467,-0.3383,-0.3284,-0.2995,-0.2843,-0.2684,-0.2511,-0.2462,-0.2219,-0.1979,-0.1752,-0.1523,-0.1332,-0.0896,-0.0988,-0.0836,-0.0757,-0.0163,-0.0138,0.0141,0.034,-0.0727,-0.072,-0.0715,0,-0.3567,-0.3556,-0.3366,-0.3383,-0.3254,-0.3069,-0.292,-0.2723,-0.2517,-0.2357,-0.2159,-0.2049,-0.1824,-0.1692,-0.1553,-0.1284,-0.1393,-0.1045,-0.0998,-0.0805,-0.0771,-0.0422,-0.0372,-0.1215,-0.1214,-0.1213,-0.1212,0,-0.3378,-0.3268,-0.3274,-0.3232,-0.3017,-0.2955,-0.28,-0.2554,-0.2423,-0.2197,-0.2124,-0.1897,-0.1821,-0.1673,-0.1501,-0.1499,-0.1362,-0.1331,-0.1046,-0.1037,-0.072,-0.0679,-0.0385,-0.1211,-0.121,-0.121,-0.121,0,-0.3171,-0.3125,-0.3146,-0.2943,-0.2909,-0.2866,-0.2642,-0.2525,-0.2284,-0.2163,-0.1982,-0.1829,-0.1693,-0.1617,-0.1456,-0.1468,-0.1393,-0.1326,-0.1327,-0.0972,-0.0922,-0.079,-0.0769,-0.0488,-0.1382,-0.1382,-0.1383,0,-0.2997,-0.3012,-0.2926,-0.2893,-0.287,-0.2688,-0.2598,-0.243,-0.228,-0.2126,-0.1939,-0.1776,-0.1676,-0.1586,-0.1503,-0.1378,-0.1349,-0.1346,-0.1197,-0.1195,-0.0961,-0.0987,-0.0734,-0.0795,-0.1386,-0.1386,-0.1385,0,-0.2882,-0.2792,-0.2803,-0.2747,-0.2635,-0.2573,-0.2503,-0.2343,-0.224,-0.21,-0.197,-0.177,-0.1641,-0.1523,-0.1388,-0.1321,-0.1364,-0.1263,-0.1253,-0.1335,-0.1292,-0.1032,-0.1006,-0.1265,-0.1262,-0.1261,-0.1388,0,-0.2662,-0.2662,-0.2687,-0.2629,-0.2563,-0.2548,-0.2398,-0.2312,-0.2201,-0.2061,-0.1889,-0.1691,-0.1471,-0.1458,-0.1342,-0.1262,-0.1278,-0.1175,-0.1075,-0.1142,-0.12,-0.1199,-0.115,-0.1146,-0.1142,-0.1139,0,0,-0.2534,-0.2557,-0.2478,-0.2476,-0.2426,-0.2279,-0.227,-0.2172,-0.1979,-0.1883,-0.1858,-0.1526,-0.1384,-0.1209,-0.1231,-0.1165,-0.1149,-0.1125,-0.1123,-0.1123,-0.1121,-0.1178,-0.1181,-0.1134,-0.1132,-0.1131,-0.113,0,-0.2462,-0.243,-0.2478,-0.2412,-0.2322,-0.2218,-0.2223,-0.2067,-0.1983,-0.1856,-0.1691,-0.1557,-0.1344,-0.1196,-0.1098,-0.1127,-0.104,-0.1127,-0.1186,-0.1099,-0.1104,-0.1106,-0.1164,-0.117,-0.1122,-0.1122,-0.1123,0,-0.2339,-0.2297,-0.2317,-0.2242,-0.2161,-0.2119,-0.1999,-0.1954,-0.1901,-0.1665,-0.1544,-0.1404,-0.1204,-0.1097,-0.1041,-0.099,-0.0931,-0.0922,-0.0937,-0.0894,-0.0795,-0.0802,-0.0808,-0.0731,-0.0731,-0.0731,0,0,-0.2277,-0.2306,-0.2188,-0.2215,-0.2183,-0.2032,-0.1985,-0.1899,-0.1755,-0.1688,-0.1519,-0.135,-0.1214,-0.1124,-0.0985,-0.0881,-0.0813,-0.0883,-0.0901,-0.0917,-0.0885,-0.0791,-0.0798,-0.0729,-0.0729,-0.0729,0,0,-0.2235,-0.2161,-0.2109,-0.2137,-0.2049,-0.1886,-0.1878,-0.1787,-0.1635,-0.1616,-0.1399,-0.1344,-0.1238,-0.1109,-0.1109,-0.0974,-0.089,-0.0884,-0.1064,-0.1084,-0.1102,-0.1099,-0.097,0,0,0,0,0,-0.2125,-0.2181,-0.2135,-0.2125,-0.1995,-0.1916,-0.1886,-0.176,-0.1707,-0.1697,-0.1515,-0.1418,-0.1072,-0.1066,-0.1017,-0.1047,-0.0708,-0.0712,-0.0715,-0.0922,-0.0946,-0.0966,0,0,0,0,0,0,-0.212,-0.211,-0.2133,-0.1989,-0.1958,-0.1912,-0.1799,-0.1761,-0.1706,-0.169,-0.1451,-0.1409,-0.1256,-0.108,-0.1038,-0.1072,-0.0984,-0.0709,-0.0712,-0.0715,-0.093,-0.095,-0.0966,0,0,0,0,0,-0.2115,-0.2107,-0.1957,-0.1982,-0.1956,-0.18,-0.1797,-0.1765,-0.1705,-0.1486,-0.1443,-0.1623,-0.1261,-0.1213,-0.1054,-0.1095,-0.1011,-0.0997,-0.0711,-0.0714,-0.0716,-0.094,0,0,0,0,0,0,-0.2112,-0.2031,-0.1945,-0.1928,-0.1987,-0.1797,-0.1771,-0.177,-0.1499,-0.1461,-0.1646,-0.1637,-0.1263,-0.1226,-0.1191,-0.1115,-0.1034,-0.1019,-0.1009,-0.0713,-0.0715,-0.0717,0,0,0,0,0,0,-0.2035,-0.2019,-0.1935,-0.1948,-0.1931,-0.1796,-0.1774,-0.1624,-0.1494,-0.1668,-0.1655,-0.1645,-0.1307,-0.1235,-0.1207,-0.0976,-0.1051,-0.1037,-0.1027,-0.102,-0.0715,-0.0716,0,0,0,0,0,0,-0.2024,-0.201,-0.1951,-0.1938,-0.1922,-0.1713,-0.1653,-0.1514,-0.1557,-0.1679,-0.1555,-0.1554,-0.1318,-0.1287,-0.1218,-0.1001,-0.0982,-0.1051,-0.1041,-0.1034,-0.1029,0,0,0,0,0,0,0,-0.2015,-0.2168,-0.2062,-0.1928,-0.1915,-0.1779,-0.1772,-0.1766,-0.1557,-0.1556,-0.1555,-0.1554,-0.1134,-0.1118,-0.1102,-0.1021,0,0,-0.1052,-0.1045,0,0,0,0,0,0,0,0,-0.2168,-0.2168,-0.2062,-0.206,-0.2057,-0.1777,-0.1772,-0.1767,-0.1557,-0.1556,-0.1555,-0.1555,-0.1129,-0.1117,-0.1104,0,0,0,0,0,0,0,0,0,0,0,0,0,0,0,-0.2062,-0.206,0,-0.1777,-0.1772,-0.1768,-0.1557,-0.1556,-0.1555,-0.1555,-0.1126,-0.1115,-0.1105,0,0,0,0,0,0,0,0,0,0,0,0,0,0,0,0,0,0,0,0,0,0,0,0,0,0,0,0,0,0,0,0,0,0,0,0,0,0,0,0,0,0,0,0,0,0,0,0,0,0,0,0,0,0,0,0,0,0,0,0,0,0,0,0,0,0,0,0,0]}]],[[{"header":{"parameterUnit":"kt","parameterCategory":2,"dx":1,"dy":1,"la1":30.253999710083008,"la2":30.299108505249023,"lo1":-89.0895004272461,"lo2":-89.04439544677734,"nx":28,"ny":28,"refTime":"2022-09-20T15:00:00:Z","depth":"2","parameterNumber":2,"parameterNumberName":"U-component_of_CURRENTS"},"data":[-0.3649,-0.3388,-0.3316,-0.2904,-0.2844,-0.2508,-0.2389,-0.2183,-0.207,-0.1805,-0.1652,-0.1869,-0.1785,-0.1338,-0.1183,-0.0896,-0.1355,-0.0841,-0.1783,-0.2074,-0.2172,-0.2415,-0.2088,0,0,0,0,0,-0.3855,-0.3808,-0.3691,-0.3511,-0.3328,-0.35,-0.3383,-0.3099,-0.2782,-0.2869,-0.269,-0.2275,-0.1929,-0.2024,-0.1612,-0.1433,-0.1546,-0.1466,-0.1628,-0.1734,-0.1832,-0.1554,-0.0774,-0.0772,-0.0771,-0.0769,0,0,-0.4236,-0.4137,-0.4079,-0.3939,-0.3921,-0.3862,-0.361,-0.3616,-0.3444,-0.3317,-0.3453,-0.3129,-0.3086,-0.2666,-0.2582,-0.2532,-0.2769,-0.2632,-0.2681,-0.2743,-0.2498,-0.2424,-0.1973,-0.1979,-0.1984,-0.1988,-0.1992,0,-0.4447,-0.4491,-0.4407,-0.4305,-0.4248,-0.4133,-0.4064,-0.3993,-0.4063,-0.3967,-0.3876,-0.3765,-0.3704,-0.336,-0.3355,-0.3314,-0.3642,-0.3418,-0.4346,-0.3276,-0.3232,-0.326,-0.3316,-0.2965,-0.2977,-0.2985,-0.2991,-0.2996,-0.4725,-0.4673,-0.4625,-0.4566,-0.4564,-0.443,-0.4356,-0.4368,-0.4298,-0.4311,-0.4282,-0.4361,-0.4222,-0.4208,-0.4134,-0.4154,-0.4491,-0.3711,-0.3498,-0.4292,-0.4314,-0.4333,-0.4349,-0.3121,-0.3105,-0.3092,-0.3082,0,-0.4842,-0.4907,-0.48,-0.4771,-0.4744,-0.4639,-0.455,-0.4456,-0.4482,-0.4415,-0.4442,-0.4471,-0.4534,-0.4709,-0.482,-0.4676,-0.466,-0.4597,-0.4235,-0.4171,-0.4414,-0.4416,-0.4228,-0.4215,-0.4203,-0.4194,-0.4186,0,-0.5044,-0.4971,-0.5022,-0.4964,-0.4815,-0.4851,-0.4679,-0.466,-0.4641,-0.4569,-0.4621,-0.4545,-0.4724,-0.4785,-0.4867,-0.4751,-0.4936,-0.4595,-0.4593,-0.4259,-0.4204,-0.4864,-0.4855,-0.4926,-0.4925,-0.4924,-0.4923,0,-0.5179,-0.5168,-0.5087,-0.5067,-0.5025,-0.4971,-0.4933,-0.4853,-0.4767,-0.4748,-0.4721,-0.4713,-0.4741,-0.4778,-0.4879,-0.4878,-0.4936,-0.4938,-0.4659,-0.4644,-0.4185,-0.4123,-0.4921,-0.4921,-0.4921,-0.492,-0.492,0,-0.5344,-0.5325,-0.5267,-0.5166,-0.5144,-0.5138,-0.4965,-0.4926,-0.4869,-0.4852,-0.481,-0.4827,-0.4795,-0.4847,-0.4856,-0.4859,-0.4909,-0.4941,-0.4947,-0.4473,-0.4508,-0.4207,-0.4153,-0.5091,-0.5091,-0.5091,-0.5091,0,-0.5378,-0.5374,-0.5419,-0.5343,-0.5292,-0.5278,-0.5234,-0.5164,-0.512,-0.5061,-0.5019,-0.4963,-0.4987,-0.496,-0.4932,-0.4939,-0.494,-0.4919,-0.4894,-0.4892,-0.4525,-0.4555,-0.4129,-0.4188,-0.5092,-0.5092,-0.5092,0,-0.5403,-0.5468,-0.5464,-0.5413,-0.5434,-0.5388,-0.5366,-0.5269,-0.5186,-0.5221,-0.5112,-0.5045,-0.5041,-0.4939,-0.4898,-0.486,-0.4954,-0.4867,-0.4861,-0.4913,-0.4985,-0.4612,-0.4578,-0.4941,-0.4939,-0.4937,-0.5093,0,-0.5398,-0.543,-0.5456,-0.5473,-0.5463,-0.5446,-0.5413,-0.5403,-0.5382,-0.532,-0.5249,-0.5175,-0.5025,-0.5058,-0.497,-0.4909,-0.4942,-0.4898,-0.4731,-0.4829,-0.4901,-0.4901,-0.484,-0.4837,-0.4833,-0.4831,0,0,-0.5352,-0.5392,-0.544,-0.5466,-0.5425,-0.5433,-0.5404,-0.538,-0.5313,-0.5237,-0.5286,-0.5105,-0.5012,-0.484,-0.4884,-0.4874,-0.4882,-0.4723,-0.4812,-0.4812,-0.481,-0.488,-0.4884,-0.4825,-0.4824,-0.4823,-0.4822,0,-0.5319,-0.5386,-0.5432,-0.5432,-0.5433,-0.5382,-0.5417,-0.5365,-0.5321,-0.5275,-0.5178,-0.5136,-0.4984,-0.4847,-0.4754,-0.484,-0.4728,-0.4862,-0.4815,-0.479,-0.4793,-0.4795,-0.4866,-0.4872,-0.4814,-0.4815,-0.4815,0,-0.5264,-0.5288,-0.5315,-0.5357,-0.5322,-0.5311,-0.5265,-0.5268,-0.5227,-0.5075,-0.5013,-0.4966,-0.4791,-0.4719,-0.4686,-0.4597,-0.4563,-0.4549,-0.4565,-0.4455,-0.4417,-0.4424,-0.443,-0.4337,-0.4336,-0.4335,0,0,-0.5236,-0.5294,-0.5279,-0.534,-0.5346,-0.5274,-0.5265,-0.5219,-0.514,-0.5109,-0.4997,-0.487,-0.4775,-0.4687,-0.4598,-0.4504,-0.4435,-0.4496,-0.4518,-0.4537,-0.444,-0.4407,-0.4415,-0.433,-0.433,-0.433,0,0,-0.5187,-0.5201,-0.5196,-0.5275,-0.5259,-0.5155,-0.5167,-0.5136,-0.5059,-0.5039,-0.4859,-0.4814,-0.4782,-0.4647,-0.4617,-0.4519,-0.4425,-0.4426,-0.4575,-0.4601,-0.4623,-0.4529,-0.4419,0,0,0,0,0,-0.513,-0.5208,-0.5205,-0.5214,-0.5186,-0.517,-0.5154,-0.5083,-0.5058,-0.5082,-0.4963,-0.4829,-0.46,-0.4568,-0.4523,-0.4529,-0.4276,-0.4286,-0.4295,-0.4472,-0.4501,-0.4526,0,0,0,0,0,0,-0.5133,-0.5145,-0.5201,-0.5116,-0.5108,-0.5165,-0.5062,-0.504,-0.5055,-0.5047,-0.4857,-0.482,-0.4663,-0.4576,-0.4539,-0.455,-0.4431,-0.428,-0.4288,-0.4295,-0.4482,-0.4506,-0.4526,0,0,0,0,0,-0.5135,-0.5144,-0.5149,-0.5109,-0.5103,-0.5025,-0.5061,-0.5042,-0.5047,-0.4841,-0.4807,-0.5012,-0.4666,-0.4625,-0.4553,-0.4572,-0.4455,-0.4442,-0.4285,-0.4292,-0.4297,-0.4494,0,0,0,0,0,0,-0.5136,-0.5074,-0.5142,-0.5133,-0.5118,-0.5019,-0.5011,-0.5045,-0.4835,-0.4809,-0.4978,-0.4973,-0.4667,-0.4635,-0.4605,-0.4591,-0.4475,-0.4462,-0.4453,-0.429,-0.4295,-0.43,0,0,0,0,0,0,-0.5069,-0.5068,-0.5136,-0.5153,-0.5144,-0.5015,-0.5009,-0.4873,-0.483,-0.4978,-0.4972,-0.4978,-0.4695,-0.4642,-0.4618,-0.4408,-0.4491,-0.4478,-0.4469,-0.4463,-0.4294,-0.4298,0,0,0,0,0,0,-0.5065,-0.5064,-0.5153,-0.5146,-0.5138,-0.5019,-0.4884,-0.4841,-0.4918,-0.4984,-0.4918,-0.4918,-0.4703,-0.4677,-0.4628,-0.4429,-0.4413,-0.449,-0.4481,-0.4475,-0.4471,0,0,0,0,0,0,0,-0.5062,-0.5117,-0.5216,-0.5141,-0.5134,-0.5056,-0.5051,-0.5047,-0.4918,-0.4918,-0.4918,-0.4918,-0.4564,-0.455,-0.4536,-0.4446,0,0,-0.4491,-0.4485,0,0,0,0,0,0,0,0,-0.5113,-0.5116,-0.5216,-0.5215,-0.5214,-0.5055,-0.5051,-0.5048,-0.4918,-0.4918,-0.4918,-0.4918,-0.456,-0.4549,-0.4537,0,0,0,0,0,0,0,0,0,0,0,0,0,0,0,-0.5216,-0.5215,0,-0.5055,-0.5051,-0.5048,-0.4918,-0.4918,-0.4918,-0.4918,-0.4557,-0.4548,-0.4538,0,0,0,0,0,0,0,0,0,0,0,0,0,0,0,0,0,0,0,0,0,0,0,0,0,0,0,0,0,0,0,0,0,0,0,0,0,0,0,0,0,0,0,0,0,0,0,0,0,0,0,0,0,0,0,0,0,0,0,0,0,0,0,0,0,0,0,0,0]}],[{"header":{"parameterUnit":"kt","parameterCategory":2,"dx":1,"dy":1,"la1":30.253999710083008,"la2":30.299108505249023,"lo1":-89.0895004272461,"lo2":-89.04439544677734,"nx":28,"ny":28,"refTime":"2022-09-20T15:00:00:Z","depth":"2","parameterNumber":3,"parameterNumberName":"V-component_of_CURRENTS"},"data":[-0.1185,-0.1366,-0.1437,-0.1681,-0.1745,-0.1797,-0.1744,-0.153,-0.1192,-0.0653,-0.0257,0.0142,0.0552,0.0684,0.098,0.1203,0.1401,0.1184,0.1312,0.1589,0.1626,0.1919,0.1703,0,0,0,0,0,-0.1059,-0.1154,-0.1307,-0.1451,-0.1582,-0.1525,-0.1496,-0.1447,-0.1208,-0.0672,-0.0233,0.0108,0.052,0.0842,0.1162,0.1412,0.1548,0.1423,0.1648,0.1689,0.1728,0.1565,0.1308,0.1308,0.1308,0.1308,0,0,-0.087,-0.0981,-0.1062,-0.1176,-0.1265,-0.1308,-0.1355,-0.1214,-0.1097,-0.0669,-0.0335,0.0128,0.0506,0.096,0.1257,0.1466,0.1607,0.1816,0.1843,0.1874,0.1706,0.1651,0.1491,0.1492,0.1493,0.1494,0.1494,0,-0.071,-0.0709,-0.0777,-0.0906,-0.0954,-0.1039,-0.1002,-0.1024,-0.0781,-0.0645,-0.0266,0.0052,0.0518,0.0973,0.1323,0.1613,0.1939,0.1943,0.2202,0.2217,0.2187,0.2258,0.228,0.2147,0.2152,0.2156,0.2158,0.216,-0.0473,-0.0549,-0.0565,-0.0626,-0.0574,-0.0641,-0.0683,-0.0557,-0.0545,-0.0259,-0.0186,0.0138,0.0506,0.1023,0.1426,0.1879,0.2078,0.2053,0.2174,0.242,0.2488,0.2499,0.2509,0.2212,0.2205,0.22,0.2196,0,-0.0345,-0.0274,-0.0366,-0.0309,-0.0291,-0.036,-0.0298,-0.0373,-0.0243,-0.015,-0.0078,0.0328,0.0691,0.1146,0.1692,0.1981,0.2304,0.2394,0.2325,0.2355,0.2554,0.2554,0.2442,0.2433,0.2425,0.2419,0.2413,0,-0.0065,-0.0129,-0.0012,-0.0055,-0.0165,0.0008,-0.0096,0.0022,0.0134,0.0192,0.0487,0.0611,0.1191,0.1483,0.1917,0.2243,0.2323,0.2576,0.2629,0.2594,0.2573,0.2911,0.2917,0.284,0.2839,0.2837,0.2836,0,0.0158,0.0205,0.0134,0.0161,0.027,0.0279,0.0357,0.0499,0.0536,0.0695,0.0726,0.1038,0.1281,0.1575,0.213,0.2209,0.2482,0.2658,0.2665,0.2657,0.2631,0.2615,0.2834,0.2834,0.2833,0.2833,0.2832,0,0.0458,0.0459,0.0406,0.0443,0.046,0.0505,0.0552,0.0648,0.0849,0.0967,0.1164,0.142,0.1712,0.1937,0.2339,0.2275,0.2544,0.2763,0.2775,0.2539,0.266,0.2674,0.2613,0.2993,0.2993,0.2993,0.2993,0,0.0612,0.059,0.0737,0.0713,0.0711,0.0941,0.0988,0.1152,0.1328,0.1417,0.1756,0.1897,0.2209,0.2296,0.243,0.2717,0.28,0.2765,0.2927,0.2933,0.2627,0.2563,0.2495,0.2624,0.2991,0.2991,0.2991,0,0.0739,0.0901,0.0898,0.089,0.1112,0.1181,0.1296,0.1447,0.1429,0.1762,0.1771,0.2183,0.2321,0.244,0.266,0.2742,0.2819,0.2837,0.2841,0.2847,0.2869,0.2603,0.2581,0.2803,0.2801,0.2799,0.2989,0,0.096,0.0976,0.1,0.1098,0.1208,0.1285,0.1513,0.1626,0.1785,0.1935,0.2119,0.2439,0.2605,0.274,0.2906,0.2948,0.2979,0.3014,0.2969,0.2976,0.3079,0.308,0.31,0.3102,0.3104,0.3105,0,0,0.1032,0.1051,0.1225,0.1266,0.1337,0.1589,0.1609,0.1774,0.2047,0.2099,0.2208,0.2553,0.2759,0.2875,0.2956,0.3081,0.3088,0.297,0.3017,0.3006,0.2997,0.3089,0.3088,0.3108,0.3109,0.311,0.311,0,0.1114,0.1187,0.1183,0.1306,0.1505,0.1647,0.1669,0.1918,0.2012,0.2202,0.234,0.2523,0.2758,0.2889,0.2981,0.3093,0.3083,0.3131,0.3008,0.3032,0.3019,0.3009,0.3096,0.3094,0.3114,0.3114,0.3114,0,0.1193,0.1292,0.1304,0.1478,0.162,0.1707,0.1843,0.1984,0.2049,0.224,0.2364,0.254,0.2723,0.2876,0.2944,0.2936,0.3067,0.3069,0.3066,0.2994,0.3015,0.3004,0.2994,0.3102,0.3101,0.31,0,0,0.1246,0.1269,0.148,0.151,0.1587,0.1797,0.1893,0.1992,0.217,0.2231,0.237,0.2523,0.2676,0.2741,0.2897,0.3031,0.305,0.3056,0.3057,0.3057,0.2986,0.3007,0.2999,0.3095,0.3095,0.3095,0,0,0.1291,0.146,0.1502,0.1538,0.1711,0.1964,0.2021,0.2111,0.2265,0.2262,0.2407,0.2446,0.2592,0.2684,0.2617,0.2843,0.2856,0.2874,0.2737,0.274,0.2742,0.2609,0.2627,0,0,0,0,0,0.1454,0.1441,0.1476,0.1509,0.1739,0.1944,0.1989,0.2123,0.2134,0.2168,0.232,0.2325,0.269,0.2635,0.2674,0.2671,0.304,0.305,0.3059,0.292,0.2922,0.2924,0,0,0,0,0,0,0.1468,0.1499,0.1481,0.1714,0.1772,0.1943,0.1991,0.2031,0.2131,0.2136,0.2308,0.2332,0.2428,0.2618,0.2653,0.2647,0.2615,0.3044,0.3053,0.306,0.2921,0.2922,0.2924,0,0,0,0,0,0.148,0.1507,0.18,0.1721,0.177,0.1973,0.1986,0.202,0.2087,0.2273,0.2299,0.2175,0.2428,0.2462,0.2639,0.2628,0.2591,0.2604,0.305,0.3056,0.3062,0.2922,0,0,0,0,0,0,0.149,0.1563,0.1818,0.1845,0.1678,0.1967,0.1999,0.2009,0.2218,0.2249,0.2146,0.2147,0.2429,0.2456,0.2482,0.2616,0.2572,0.2585,0.2593,0.3055,0.306,0.3064,0,0,0,0,0,0,0.1552,0.1582,0.1832,0.1769,0.179,0.196,0.1988,0.213,0.2215,0.2076,0.2086,0.2143,0.2362,0.2452,0.2472,0.2696,0.2557,0.257,0.2578,0.2584,0.3059,0.3063,0,0,0,0,0,0,0.1571,0.1597,0.1762,0.1779,0.1797,0.211,0.2089,0.2292,0.2228,0.2062,0.222,0.2216,0.2355,0.2379,0.2465,0.268,0.2692,0.2558,0.2566,0.2572,0.2576,0,0,0,0,0,0,0,0.1586,0.1332,0.1662,0.1787,0.1803,0.2099,0.2106,0.2113,0.2228,0.2224,0.2221,0.2218,0.2486,0.25,0.2513,0.2667,0,0,0.2556,0.2562,0,0,0,0,0,0,0,0,0.1329,0.1332,0.1663,0.1669,0.1675,0.21,0.2106,0.2112,0.2227,0.2224,0.2222,0.2219,0.249,0.2501,0.2512,0,0,0,0,0,0,0,0,0,0,0,0,0,0,0,0.1663,0.1668,0,0.2101,0.2106,0.211,0.2227,0.2224,0.2222,0.222,0.2493,0.2502,0.2511,0,0,0,0,0,0,0,0,0,0,0,0,0,0,0,0,0,0,0,0,0,0,0,0,0,0,0,0,0,0,0,0,0,0,0,0,0,0,0,0,0,0,0,0,0,0,0,0,0,0,0,0,0,0,0,0,0,0,0,0,0,0,0,0,0,0,0,0,0]}]],[[{"header":{"parameterUnit":"kt","parameterCategory":2,"dx":1,"dy":1,"la1":30.253999710083008,"la2":30.299108505249023,"lo1":-89.0895004272461,"lo2":-89.04439544677734,"nx":28,"ny":28,"refTime":"2022-09-20T15:00:00:Z","depth":"4","parameterNumber":2,"parameterNumberName":"U-component_of_CURRENTS"},"data":[-0.092,-0.092,-0.0914,-0.0881,-0.0898,-0.1031,-0.1213,-0.1447,-0.1483,-0.1757,-0.1698,-0.1904,-0.1818,-0.195,-0.1786,-0.1801,-0.1897,-0.1955,-0.1951,-0.2197,-0.2221,-0.2241,-0.2241,0,0,0,0,0,-0.0982,-0.0948,-0.0981,-0.1046,-0.1145,-0.123,-0.1523,-0.1726,-0.203,-0.1983,-0.2139,-0.206,-0.1991,-0.201,-0.1873,-0.2062,-0.2096,-0.1904,-0.2108,-0.2212,-0.2237,-0.2228,0,0,0,0,0,0,-0.1065,-0.1062,-0.1109,-0.1187,-0.1305,-0.1423,-0.1607,-0.1776,-0.1959,-0.2282,-0.2242,-0.2283,-0.2365,-0.224,-0.2178,-0.2101,-0.21,-0.2099,-0.2128,-0.2153,-0.2124,-0.1991,-0.1776,0,0,0,0,0,-0.1139,-0.1187,-0.1255,-0.1327,-0.1454,-0.1633,-0.1851,-0.1954,-0.2282,-0.2488,-0.2513,-0.25,-0.2428,-0.2376,-0.2295,-0.2251,-0.2492,-0.2382,-0.2397,-0.2467,-0.2388,-0.2399,-0.2414,-0.2334,-0.2337,-0.2339,-0.2341,0,-0.1247,-0.1256,-0.1433,-0.1486,-0.158,-0.1776,-0.1904,-0.2217,-0.236,-0.2624,-0.2657,-0.2701,-0.2746,-0.2539,-0.2594,-0.2499,-0.2482,-0.2448,-0.2524,-0.2429,-0.2432,-0.2442,-0.2449,-0.2361,-0.2359,-0.2358,-0.2356,0,-0.1284,-0.1386,-0.148,-0.1675,-0.1749,-0.1851,-0.2154,-0.2291,-0.2511,-0.267,-0.2725,-0.287,-0.2835,-0.2854,-0.2841,-0.2784,-0.2712,-0.2632,-0.2789,-0.2798,-0.2486,-0.2486,-0.2395,-0.2387,-0.2381,-0.2376,-0.2371,0,-0.139,-0.1477,-0.1644,-0.1683,-0.1809,-0.198,-0.2157,-0.2315,-0.2533,-0.2666,-0.2813,-0.287,-0.296,-0.2957,-0.293,-0.2806,-0.2933,-0.2712,-0.2703,-0.2933,-0.2931,-0.29,-0.2893,-0.2963,-0.2963,-0.2964,-0.2965,0,-0.1433,-0.1613,-0.167,-0.173,-0.1933,-0.2016,-0.2158,-0.2358,-0.2491,-0.2684,-0.2784,-0.2883,-0.2919,-0.2956,-0.2906,-0.2949,-0.2913,-0.2968,-0.275,-0.2734,-0.2902,-0.2894,-0.2966,-0.2966,-0.2966,-0.2966,-0.2967,0,-0.1535,-0.1603,-0.1688,-0.1879,-0.1926,-0.2026,-0.2222,-0.2349,-0.2542,-0.2645,-0.2761,-0.2838,-0.2868,-0.2868,-0.2897,-0.2932,-0.2909,-0.2897,-0.2896,-0.2676,-0.2669,-0.2761,-0.2846,-0.2846,-0.2846,-0.2846,-0.2845,0,-0.1537,-0.1642,-0.1718,-0.1857,-0.1916,-0.2055,-0.2158,-0.2306,-0.2437,-0.2577,-0.2633,-0.2752,-0.2747,-0.2802,-0.2826,-0.2843,-0.2837,-0.2838,-0.2863,-0.2859,-0.2665,-0.2699,-0.2943,-0.2843,-0.2844,-0.2844,-0.2844,0,-0.1531,-0.1678,-0.1706,-0.1774,-0.1919,-0.2003,-0.2116,-0.2252,-0.2352,-0.2491,-0.2584,-0.2674,-0.272,-0.2745,-0.2769,-0.2785,-0.2821,-0.2813,-0.2814,-0.2747,-0.2912,-0.2718,-0.27,-0.2935,-0.2937,-0.2938,-0.2843,0,-0.1572,-0.165,-0.1689,-0.1815,-0.1888,-0.1973,-0.2098,-0.22,-0.2286,-0.2373,-0.2511,-0.2565,-0.2652,-0.2681,-0.268,-0.2754,-0.275,-0.2788,-0.2726,-0.2801,-0.2745,-0.2747,-0.2705,-0.2703,-0.2702,-0.2701,0,0,-0.1546,-0.1611,-0.1698,-0.1767,-0.1828,-0.1941,-0.2001,-0.209,-0.2231,-0.2285,-0.232,-0.249,-0.2507,-0.259,-0.2632,-0.2659,-0.2684,-0.2647,-0.2769,-0.2777,-0.2784,-0.2735,-0.2738,-0.2698,-0.2698,-0.2698,-0.2697,0,-0.1547,-0.1619,-0.1669,-0.1748,-0.1871,-0.1937,-0.1961,-0.2084,-0.2146,-0.2261,-0.2305,-0.2369,-0.2494,-0.2524,-0.255,-0.2641,-0.2634,-0.2701,-0.2701,-0.2757,-0.2767,-0.2775,-0.2729,-0.2733,-0.2694,-0.2694,-0.2694,0,-0.1539,-0.1608,-0.1647,-0.1761,-0.1836,-0.1914,-0.1936,-0.2032,-0.21,-0.2127,-0.2243,-0.2306,-0.2353,-0.2458,-0.25,-0.2466,-0.2564,-0.2554,-0.2561,-0.2518,-0.2571,-0.2583,-0.2593,-0.2452,-0.2451,-0.2451,0,0,-0.1543,-0.1604,-0.1711,-0.1771,-0.1815,-0.1902,-0.1948,-0.2013,-0.2093,-0.213,-0.2193,-0.2257,-0.2324,-0.2358,-0.2427,-0.2484,-0.2455,-0.2525,-0.2536,-0.2546,-0.2509,-0.2563,-0.2575,-0.2448,-0.2448,-0.2448,0,0,-0.1549,-0.1665,-0.1705,-0.177,-0.1861,-0.1958,-0.2004,-0.2036,-0.2115,-0.2137,-0.2175,-0.2194,-0.2299,-0.2301,-0.2263,-0.241,-0.2362,-0.237,-0.2411,-0.2425,-0.2436,-0.2381,-0.2259,0,0,0,0,0,-0.1618,-0.1647,-0.1681,-0.1706,-0.1838,-0.1935,-0.1954,-0.2038,-0.2041,-0.2081,-0.2149,-0.2143,-0.2315,-0.2281,-0.229,-0.2342,-0.2412,-0.2419,-0.2425,-0.2492,-0.2507,-0.252,0,0,0,0,0,0,-0.1628,-0.1655,-0.1681,-0.1775,-0.1807,-0.1933,-0.1959,-0.1982,-0.2042,-0.2053,-0.2131,-0.2144,-0.2184,-0.2277,-0.2284,-0.2335,-0.2257,-0.2415,-0.242,-0.2425,-0.2497,-0.2509,-0.252,0,0,0,0,0,-0.1636,-0.1658,-0.1853,-0.1775,-0.1803,-0.1919,-0.196,-0.1979,-0.2027,-0.2101,-0.2117,-0.2093,-0.2182,-0.2193,-0.2281,-0.2332,-0.2251,-0.2254,-0.2418,-0.2422,-0.2426,-0.2503,0,0,0,0,0,0,-0.1643,-0.1666,-0.186,-0.1872,-0.1787,-0.1916,-0.1939,-0.1977,-0.2072,-0.209,-0.2062,-0.2069,-0.218,-0.2189,-0.2198,-0.2332,-0.2247,-0.225,-0.2252,-0.2421,-0.2425,-0.2428,0,0,0,0,0,0,-0.1655,-0.1674,-0.1866,-0.1876,-0.1889,-0.1912,-0.1933,-0.1958,-0.2071,-0.2027,-0.2037,-0.2064,-0.2162,-0.2186,-0.2193,-0.2228,-0.2244,-0.2246,-0.2248,-0.225,-0.2424,-0.2427,0,0,0,0,0,0,-0.1664,-0.1681,-0.1873,-0.1883,-0.1895,-0.2024,-0.1934,-0.206,-0.2101,-0.2019,-0.2106,-0.2108,-0.2157,-0.2166,-0.219,-0.2221,-0.2226,-0.2244,-0.2246,-0.2247,-0.2248,0,0,0,0,0,0,0,-0.1672,-0.1542,-0.1799,-0.1889,-0.1899,-0.1978,-0.1981,-0.1983,-0.2101,-0.2103,-0.2105,-0.2107,-0.2228,-0.2231,-0.2234,-0.2215,0,0,-0.2243,-0.2245,0,0,0,0,0,0,0,0,-0.1537,-0.1541,-0.18,-0.1803,-0.1805,-0.1979,-0.1981,-0.1983,-0.2102,-0.2103,-0.2105,-0.2106,-0.2228,-0.2231,-0.2233,0,0,0,0,0,0,0,0,0,0,0,0,0,0,0,-0.18,-0.1802,0,-0.1979,-0.1981,-0.1982,-0.2102,-0.2103,-0.2104,-0.2106,-0.2229,-0.2231,-0.2233,0,0,0,0,0,0,0,0,0,0,0,0,0,0,0,0,0,0,0,0,0,0,0,0,0,0,0,0,0,0,0,0,0,0,0,0,0,0,0,0,0,0,0,0,0,0,0,0,0,0,0,0,0,0,0,0,0,0,0,0,0,0,0,0,0,0,0,0,0]}],[{"header":{"parameterUnit":"kt","parameterCategory":2,"dx":1,"dy":1,"la1":30.253999710083008,"la2":30.299108505249023,"lo1":-89.0895004272461,"lo2":-89.04439544677734,"nx":28,"ny":28,"refTime":"2022-09-20T15:00:00:Z","depth":"4","parameterNumber":3,"parameterNumberName":"V-component_of_CURRENTS"},"data":[-0.119,-0.1288,-0.1308,-0.1406,-0.1467,-0.1546,-0.1552,-0.145,-0.1319,-0.1128,-0.0885,-0.0677,-0.0244,-0.0359,0.0211,0.0292,0.0303,0.0847,0.085,0.0858,0.0851,0.0845,0.0587,0,0,0,0,0,-0.1161,-0.1229,-0.1309,-0.1415,-0.1497,-0.1547,-0.1543,-0.15,-0.1343,-0.1138,-0.1028,-0.0685,-0.0228,-0.0019,0.0217,0.033,0.0604,0.0606,0.0599,0.0854,0.0846,0.0598,0,0,0,0,0,0,-0.1131,-0.1192,-0.13,-0.1387,-0.1484,-0.1528,-0.1528,-0.1415,-0.1332,-0.104,-0.0927,-0.0545,-0.0315,0.006,0.0355,0.0595,0.0599,0.0601,0.0607,0.0603,0.0373,0.0211,0.052,0,0,0,0,0,-0.1108,-0.117,-0.1249,-0.1367,-0.1436,-0.1494,-0.15,-0.1447,-0.1314,-0.1204,-0.0899,-0.0629,-0.0256,0.0057,0.0377,0.0629,0.0692,0.0825,0.082,0.0615,0.0519,0.0543,0.0509,0.0818,0.0817,0.0816,0.0816,0,-0.1078,-0.1136,-0.1274,-0.1333,-0.139,-0.1438,-0.1465,-0.1413,-0.1347,-0.1093,-0.1005,-0.0679,-0.0506,0.0035,0.0258,0.0648,0.0656,0.0807,0.0586,0.0503,0.0537,0.0503,0.0471,0.081,0.081,0.0811,0.0811,0,-0.1061,-0.1127,-0.1226,-0.1315,-0.1349,-0.1387,-0.1399,-0.1374,-0.1274,-0.1137,-0.1082,-0.0847,-0.0527,-0.0279,0.0112,0.0206,0.0489,0.0591,0.0395,0.0442,0.0477,0.0447,0.08,0.0802,0.0804,0.0805,0.0807,0,-0.1048,-0.1114,-0.1211,-0.1251,-0.1327,-0.1335,-0.1352,-0.1335,-0.1236,-0.1151,-0.1036,-0.0908,-0.0678,-0.042,-0.0236,0.008,0.0154,0.0205,0.0276,0.0075,0.0049,0.0141,0.0118,0.03,0.0297,0.0294,0.0292,0,-0.1017,-0.1113,-0.1194,-0.1214,-0.1274,-0.1307,-0.1313,-0.126,-0.123,-0.1107,-0.1026,-0.0888,-0.0771,-0.055,-0.0325,-0.0381,0.0062,0.0021,0.0168,0.0169,0.0115,0.0098,0.0288,0.0288,0.0287,0.0286,0.0285,0,-0.1009,-0.1058,-0.1152,-0.1218,-0.1227,-0.1259,-0.1239,-0.1242,-0.1151,-0.1111,-0.1032,-0.0952,-0.0841,-0.0835,-0.0532,-0.0631,-0.045,-0.0326,-0.0307,-0.029,-0.0275,-0.018,-0.0089,-0.0093,-0.0098,-0.0102,-0.0106,0,-0.0966,-0.1047,-0.1069,-0.1137,-0.117,-0.1151,-0.1166,-0.1151,-0.1109,-0.1054,-0.1007,-0.0962,-0.0979,-0.0948,-0.0853,-0.0695,-0.0564,-0.0752,-0.0315,-0.0303,-0.0321,-0.0234,-0.0558,-0.0168,-0.016,-0.0154,-0.015,0,-0.0918,-0.0995,-0.1,-0.1037,-0.1038,-0.1046,-0.1063,-0.1059,-0.1043,-0.1034,-0.0996,-0.1013,-0.0961,-0.0948,-0.0927,-0.0829,-0.065,-0.0754,-0.0744,-0.0586,-0.0269,-0.0304,-0.0269,-0.0583,-0.0578,-0.0574,-0.0193,0,-0.0916,-0.0958,-0.0968,-0.0986,-0.0994,-0.1011,-0.0993,-0.1,-0.099,-0.0972,-0.0956,-0.0931,-0.0899,-0.0923,-0.091,-0.084,-0.0768,-0.0753,-0.0708,-0.0698,-0.0536,-0.0503,-0.0877,-0.0876,-0.0875,-0.0874,0,0,-0.0861,-0.0903,-0.0881,-0.0905,-0.091,-0.0877,-0.0911,-0.0909,-0.0906,-0.0898,-0.0885,-0.0859,-0.0858,-0.0846,-0.0861,-0.0866,-0.0739,-0.0859,-0.0736,-0.0721,-0.0707,-0.0552,-0.0521,-0.0872,-0.0872,-0.0871,-0.0871,0,-0.0845,-0.0841,-0.087,-0.0873,-0.087,-0.086,-0.0867,-0.0863,-0.0862,-0.0878,-0.0838,-0.0828,-0.0834,-0.0813,-0.0806,-0.085,-0.0737,-0.086,-0.0885,-0.0733,-0.072,-0.0707,-0.0553,-0.0526,-0.0868,-0.0869,-0.0869,0,-0.0805,-0.0799,-0.0809,-0.0817,-0.0813,-0.083,-0.0799,-0.0807,-0.0824,-0.0775,-0.0792,-0.0771,-0.0748,-0.076,-0.0765,-0.0752,-0.0702,-0.0793,-0.0798,-0.078,-0.0618,-0.0606,-0.0595,-0.0729,-0.0729,-0.0728,0,0,-0.0787,-0.0801,-0.079,-0.0809,-0.0806,-0.08,-0.0806,-0.0795,-0.078,-0.0778,-0.0764,-0.0747,-0.0738,-0.0736,-0.0727,-0.0755,-0.0649,-0.0778,-0.0785,-0.079,-0.0776,-0.0618,-0.0607,-0.0727,-0.0727,-0.0727,0,0,-0.0768,-0.0757,-0.0755,-0.0774,-0.0776,-0.0762,-0.0771,-0.0769,-0.0766,-0.0755,-0.0723,-0.0715,-0.072,-0.071,-0.0697,-0.0731,-0.0701,-0.0703,-0.0746,-0.0753,-0.076,-0.0742,-0.0666,0,0,0,0,0,-0.0737,-0.0759,-0.0759,-0.0759,-0.0766,-0.0771,-0.0774,-0.0752,-0.0739,-0.0757,-0.0725,-0.0711,-0.0687,-0.0675,-0.0677,-0.0711,-0.0714,-0.0717,-0.0719,-0.0778,-0.0787,-0.0794,0,0,0,0,0,0,-0.0737,-0.0738,-0.0757,-0.0743,-0.0744,-0.0771,-0.0731,-0.0727,-0.0736,-0.0731,-0.0718,-0.0711,-0.0683,-0.0673,-0.0675,-0.0709,-0.0666,-0.0715,-0.0717,-0.0719,-0.0781,-0.0788,-0.0794,0,0,0,0,0,-0.0737,-0.0737,-0.0751,-0.0743,-0.0744,-0.072,-0.0729,-0.0725,-0.0742,-0.0703,-0.0697,-0.0721,-0.0685,-0.0683,-0.0674,-0.0708,-0.0665,-0.0665,-0.0716,-0.0718,-0.0719,-0.0785,0,0,0,0,0,0,-0.0736,-0.075,-0.0751,-0.075,-0.0719,-0.0719,-0.0717,-0.0724,-0.0713,-0.0708,-0.0703,-0.0699,-0.0687,-0.0685,-0.0684,-0.0709,-0.0664,-0.0664,-0.0665,-0.0718,-0.0719,-0.072,0,0,0,0,0,0,-0.0749,-0.075,-0.0751,-0.0722,-0.0718,-0.0717,-0.0716,-0.073,-0.0713,-0.0715,-0.071,-0.0701,-0.0671,-0.0687,-0.0686,-0.0712,-0.0663,-0.0663,-0.0664,-0.0664,-0.0719,-0.072,0,0,0,0,0,0,-0.0749,-0.075,-0.0722,-0.072,-0.0716,-0.0716,-0.0729,-0.0731,-0.0706,-0.0716,-0.07,-0.0697,-0.0672,-0.0672,-0.0687,-0.0714,-0.0712,-0.0663,-0.0663,-0.0664,-0.0664,0,0,0,0,0,0,0,-0.0749,-0.0743,-0.0744,-0.0718,-0.0715,-0.0744,-0.0745,-0.0746,-0.0705,-0.0703,-0.07,-0.0698,-0.0659,-0.066,-0.066,-0.0716,0,0,-0.0663,-0.0663,0,0,0,0,0,0,0,0,-0.0742,-0.0743,-0.0744,-0.0743,-0.0743,-0.0744,-0.0745,-0.0746,-0.0705,-0.0703,-0.0701,-0.0699,-0.0659,-0.066,-0.066,0,0,0,0,0,0,0,0,0,0,0,0,0,0,0,-0.0744,-0.0743,0,-0.0744,-0.0745,-0.0746,-0.0705,-0.0703,-0.0701,-0.07,-0.0659,-0.066,-0.066,0,0,0,0,0,0,0,0,0,0,0,0,0,0,0,0,0,0,0,0,0,0,0,0,0,0,0,0,0,0,0,0,0,0,0,0,0,0,0,0,0,0,0,0,0,0,0,0,0,0,0,0,0,0,0,0,0,0,0,0,0,0,0,0,0,0,0,0,0]}]]]